| time (UTC) | temp F | wind direction | speed knots | gust knots | rain 1hr in | rain 24hr in | rain mn in | humidity % | barometer mb |
| 20260507124557 | 43 | 140 | 0.0 | 0.9 | 0.00 | 0.00 | 0.00 | 51 | 1017.4 |
| 20260507124056 | 43 | 165 | 0.0 | 0.9 | 0.00 | 0.00 | 0.00 | 51 | 1017.4 |
| 20260507123555 | 43 | 165 | 0.0 | 0.9 | 0.00 | 0.00 | 0.00 | 51 | 1017.4 |
| 20260507123105 | 42 | 165 | 0.0 | 0.9 | 0.00 | 0.00 | 0.00 | 52 | 1017.4 |
| 20260507122555 | 42 | 165 | 0.0 | 0.9 | 0.00 | 0.00 | 0.00 | 52 | 1017.5 |
| 20260507122054 | 41 | 166 | 0.0 | 0.9 | 0.00 | 0.00 | 0.00 | 53 | 1017.6 |
| 20260507121556 | 41 | 157 | 0.0 | 0.0 | 0.00 | 0.00 | 0.00 | 54 | 1017.6 |
| 20260507121055 | 40 | 157 | 0.0 | 0.0 | 0.00 | 0.00 | 0.00 | 55 | 1017.5 |
| 20260507120553 | 40 | 157 | 0.0 | 0.9 | 0.00 | 0.00 | 0.00 | 55 | 1017.5 |
| 20260507120052 | 40 | 157 | 0.0 | 0.9 | 0.00 | 0.00 | 0.00 | 55 | 1017.5 |
| 20260507115552 | 39 | 157 | 0.0 | 0.0 | 0.00 | 0.00 | 0.00 | 56 | 1017.4 |
| 20260507115052 | 39 | 157 | 0.0 | 0.9 | 0.00 | 0.00 | 0.00 | 57 | 1017.5 |
| 20260507114551 | 39 | 157 | 0.0 | 0.9 | 0.00 | 0.00 | 0.00 | 57 | 1017.4 |
| 20260507114053 | 39 | 157 | 0.0 | 0.0 | 0.00 | 0.00 | 0.00 | 58 | 1017.3 |
| 20260507113550 | 39 | 130 | 0.0 | 0.0 | 0.00 | 0.00 | 0.00 | 58 | 1017.4 |
| 20260507113049 | 39 | 130 | 0.0 | 0.0 | 0.00 | 0.00 | 0.00 | 59 | 1017.4 |
| 20260507112549 | 39 | 130 | 0.0 | 0.0 | 0.00 | 0.00 | 0.00 | 59 | 1017.3 |
| 20260507112049 | 39 | 130 | 0.0 | 0.0 | 0.00 | 0.00 | 0.00 | 59 | 1017.3 |
| 20260507111548 | 39 | 130 | 0.0 | 0.9 | 0.00 | 0.00 | 0.00 | 59 | 1017.0 |
| 20260507111049 | 39 | 130 | 0.0 | 0.9 | 0.00 | 0.00 | 0.00 | 59 | 1017.0 |
| 20260507110547 | 38 | 130 | 0.0 | 0.0 | 0.00 | 0.00 | 0.00 | 60 | 1017.0 |
| 20260507110100 | 39 | 174 | 0.0 | 0.0 | 0.00 | 0.00 | 0.00 | 60 | 1016.9 |
| 20260507105545 | 39 | 174 | 0.0 | 0.0 | 0.00 | 0.02 | 0.00 | 60 | 1016.8 |
| 20260507105147 | 39 | 174 | 0.0 | 0.0 | 0.00 | 0.02 | 0.00 | 61 | 1016.9 |
| 20260507104546 | 39 | 174 | 0.0 | 0.0 | 0.00 | 0.02 | 0.00 | 61 | 1016.9 |
| 20260507104046 | 39 | 174 | 0.0 | 0.0 | 0.00 | 0.02 | 0.00 | 61 | 1016.8 |
| 20260507103544 | 39 | 260 | 0.0 | 0.0 | 0.00 | 0.02 | 0.00 | 61 | 1016.9 |
| 20260507103048 | 39 | 260 | 0.0 | 0.0 | 0.00 | 0.02 | 0.00 | 61 | 1016.8 |
| 20260507102543 | 39 | 260 | 0.0 | 0.0 | 0.00 | 0.02 | 0.00 | 61 | 1016.9 |
| 20260507102043 | 39 | 260 | 0.0 | 0.0 | 0.00 | 0.02 | 0.00 | 60 | 1016.9 |
| 20260507101547 | 39 | 260 | 0.0 | 0.0 | 0.00 | 0.02 | 0.00 | 60 | 1016.8 |
| 20260507101041 | 39 | 260 | 0.0 | 0.0 | 0.00 | 0.02 | 0.00 | 60 | 1016.8 |
| 20260507100542 | 39 | 260 | 0.0 | 0.0 | 0.00 | 0.02 | 0.00 | 60 | 1016.7 |
| 20260507100041 | 39 | 260 | 0.0 | 0.0 | 0.00 | 0.02 | 0.00 | 61 | 1016.6 |
| 20260507095541 | 39 | 260 | 0.0 | 0.0 | 0.00 | 0.08 | 0.00 | 61 | 1016.6 |
| 20260507095040 | 40 | 260 | 0.0 | 0.0 | 0.00 | 0.08 | 0.00 | 61 | 1016.5 |
| 20260507094540 | 40 | 260 | 0.0 | 0.0 | 0.00 | 0.08 | 0.00 | 61 | 1016.4 |
| 20260507094041 | 40 | 260 | 0.0 | 0.0 | 0.00 | 0.08 | 0.00 | 61 | 1016.4 |
| 20260507093539 | 40 | 260 | 0.0 | 0.0 | 0.00 | 0.08 | 0.00 | 61 | 1016.6 |
| 20260507093039 | 40 | 260 | 0.0 | 0.0 | 0.00 | 0.08 | 0.00 | 61 | 1016.5 |
| 20260507092539 | 40 | 260 | 0.0 | 0.0 | 0.00 | 0.08 | 0.00 | 61 | 1016.5 |
| 20260507092042 | 40 | 260 | 0.0 | 0.0 | 0.00 | 0.08 | 0.00 | 61 | 1016.4 |
| 20260507091540 | 40 | 260 | 0.0 | 0.0 | 0.00 | 0.08 | 0.00 | 62 | 1016.4 |
| 20260507091038 | 40 | 260 | 0.0 | 0.0 | 0.00 | 0.08 | 0.00 | 62 | 1016.4 |
| 20260507090536 | 40 | 260 | 0.0 | 0.0 | 0.00 | 0.08 | 0.00 | 62 | 1016.4 |
| 20260507090041 | 40 | 260 | 0.0 | 0.0 | 0.00 | 0.08 | 0.00 | 62 | 1016.4 |
| 20260507085535 | 41 | 260 | 0.0 | 0.0 | 0.00 | 0.16 | 0.00 | 62 | 1016.4 |
| 20260507085035 | 41 | 260 | 0.0 | 0.0 | 0.00 | 0.16 | 0.00 | 62 | 1016.4 |
| 20260507084539 | 41 | 260 | 0.0 | 0.0 | 0.00 | 0.16 | 0.00 | 62 | 1016.4 |
| 20260507084033 | 41 | 260 | 0.0 | 0.0 | 0.00 | 0.16 | 0.00 | 61 | 1016.4 |
| 20260507083533 | 41 | 260 | 0.0 | 0.0 | 0.00 | 0.16 | 0.00 | 62 | 1016.3 |
| 20260507083037 | 41 | 260 | 0.0 | 0.0 | 0.00 | 0.16 | 0.00 | 61 | 1016.2 |
| 20260507082531 | 41 | 260 | 0.0 | 0.0 | 0.00 | 0.16 | 0.00 | 61 | 1016.1 |
| 20260507082031 | 41 | 260 | 0.0 | 0.0 | 0.00 | 0.16 | 0.00 | 62 | 1016.1 |
| 20260507081530 | 41 | 260 | 0.0 | 0.0 | 0.00 | 0.16 | 0.00 | 62 | 1016.2 |
| 20260507081030 | 42 | 260 | 0.0 | 0.0 | 0.00 | 0.16 | 0.00 | 62 | 1016.3 |
| 20260507080530 | 42 | 260 | 0.0 | 0.0 | 0.00 | 0.16 | 0.00 | 62 | 1016.3 |
| 20260507080030 | 42 | 260 | 0.0 | 0.0 | 0.00 | 0.16 | 0.00 | 62 | 1016.3 |
| 20260507075529 | 42 | 260 | 0.0 | 0.0 | 0.00 | 0.28 | 0.00 | 62 | 1016.3 |
| 20260507075028 | 42 | 260 | 0.0 | 0.0 | 0.00 | 0.28 | 0.00 | 62 | 1016.4 |
| 20260507074539 | 42 | 260 | 0.0 | 0.0 | 0.00 | 0.28 | 0.00 | 62 | 1016.1 |
| 20260507074027 | 42 | 260 | 0.0 | 0.0 | 0.00 | 0.28 | 0.00 | 63 | 1016.3 |
| 20260507073527 | 42 | 260 | 0.0 | 0.0 | 0.00 | 0.28 | 0.00 | 62 | 1016.4 |
| 20260507073027 | 43 | 260 | 0.0 | 0.0 | 0.00 | 0.28 | 0.00 | 62 | 1016.3 |
| 20260507072526 | 43 | 260 | 0.0 | 0.0 | 0.00 | 0.28 | 0.00 | 63 | 1016.2 |
| 20260507072026 | 43 | 260 | 0.0 | 0.0 | 0.00 | 0.28 | 0.00 | 63 | 1016.2 |
| 20260507071525 | 43 | 260 | 0.0 | 0.0 | 0.00 | 0.28 | 0.00 | 63 | 1016.1 |
| 20260507071024 | 43 | 260 | 0.0 | 0.0 | 0.00 | 0.28 | 0.00 | 64 | 1016.2 |
| 20260507070524 | 43 | 260 | 0.0 | 0.0 | 0.00 | 0.28 | 0.00 | 64 | 1016.4 |
| 20260507070023 | 43 | 260 | 0.0 | 0.0 | 0.00 | 0.28 | 0.00 | 64 | 1016.4 |
| 20260507065522 | 43 | 260 | 0.0 | 0.0 | 0.00 | 0.50 | 0.00 | 64 | 1016.3 |
| 20260507065021 | 44 | 260 | 0.0 | 0.0 | 0.00 | 0.50 | 0.00 | 64 | 1016.3 |
| 20260507064521 | 44 | 260 | 0.0 | 0.0 | 0.00 | 0.50 | 0.00 | 64 | 1016.3 |
| 20260507064020 | 44 | 260 | 0.0 | 0.0 | 0.00 | 0.50 | 0.00 | 65 | 1016.3 |
| 20260507063520 | 44 | 260 | 0.0 | 0.0 | 0.00 | 0.50 | 0.00 | 65 | 1016.4 |
| 20260507063019 | 44 | 260 | 0.0 | 0.0 | 0.00 | 0.50 | 0.00 | 65 | 1016.3 |
| 20260507062518 | 44 | 260 | 0.0 | 0.0 | 0.00 | 0.50 | 0.00 | 66 | 1016.3 |
| 20260507062017 | 45 | 260 | 0.0 | 0.0 | 0.00 | 0.50 | 0.00 | 65 | 1016.4 |
| 20260507061517 | 45 | 260 | 0.0 | 0.0 | 0.00 | 0.50 | 0.00 | 65 | 1016.3 |
| 20260507061016 | 45 | 260 | 0.0 | 0.0 | 0.00 | 0.50 | 0.00 | 66 | 1016.3 |
| 20260507060516 | 45 | 260 | 0.0 | 0.0 | 0.00 | 0.50 | 0.00 | 67 | 1016.2 |
| 20260507060015 | 45 | 260 | 0.0 | 0.0 | 0.00 | 0.50 | 0.00 | 67 | 1016.4 |
| 20260507055515 | 45 | 260 | 0.0 | 0.0 | 0.00 | 0.60 | 0.00 | 67 | 1016.3 |
| 20260507055014 | 45 | 260 | 0.0 | 0.0 | 0.00 | 0.60 | 0.00 | 68 | 1016.3 |
| 20260507054513 | 45 | 260 | 0.0 | 0.0 | 0.00 | 0.60 | 0.00 | 69 | 1016.4 |
| 20260507054014 | 45 | 260 | 0.0 | 0.0 | 0.00 | 0.60 | 0.00 | 69 | 1016.4 |
| 20260507053512 | 46 | 260 | 0.0 | 0.0 | 0.00 | 0.60 | 0.00 | 69 | 1016.4 |
| 20260507053111 | 46 | 260 | 0.0 | 0.0 | 0.00 | 0.60 | 0.00 | 69 | 1016.5 |
| 20260507052512 | 46 | 260 | 0.0 | 0.0 | 0.00 | 0.60 | 0.00 | 69 | 1016.5 |
| 20260507052009 | 46 | 260 | 0.0 | 0.0 | 0.00 | 0.60 | 0.00 | 69 | 1016.4 |
| 20260507051508 | 47 | 260 | 0.0 | 0.0 | 0.00 | 0.60 | 0.00 | 70 | 1016.3 |
| 20260507051007 | 47 | 260 | 0.0 | 0.0 | 0.00 | 0.60 | 0.00 | 71 | 1016.5 |
| 20260507050507 | 47 | 260 | 0.0 | 0.0 | 0.00 | 0.60 | 0.00 | 72 | 1016.6 |
| 20260507050006 | 47 | 260 | 0.0 | 0.0 | 0.00 | 0.61 | 0.00 | 72 | 1016.7 |
| 20260507045505 | 47 | 260 | 0.0 | 0.0 | 0.00 | 0.61 | 0.00 | 72 | 1016.7 |
| 20260507045004 | 47 | 260 | 0.0 | 0.0 | 0.00 | 0.61 | 0.00 | 72 | 1016.6 |
| 20260507044504 | 47 | 260 | 0.0 | 0.0 | 0.00 | 0.61 | 0.00 | 73 | 1016.7 |
| 20260507044002 | 48 | 260 | 0.0 | 0.0 | 0.00 | 0.61 | 0.00 | 73 | 1016.7 |
| 20260507043503 | 48 | 260 | 0.0 | 0.0 | 0.00 | 0.61 | 0.00 | 74 | 1016.7 |
| 20260507043001 | 48 | 260 | 0.0 | 0.0 | 0.00 | 0.61 | 0.00 | 74 | 1016.8 |
| 20260507042600 | 48 | 260 | 0.0 | 0.0 | 0.00 | 0.61 | 0.00 | 74 | 1016.7 |
| 20260507042059 | 48 | 260 | 0.0 | 0.0 | 0.00 | 0.61 | 0.00 | 74 | 1016.7 |
| 20260507041601 | 48 | 260 | 0.0 | 0.0 | 0.00 | 0.61 | 0.00 | 75 | 1016.7 |
| 20260507041058 | 48 | 260 | 0.0 | 0.0 | 0.00 | 0.61 | 0.00 | 75 | 1016.7 |
| 20260507040557 | 49 | 260 | 0.0 | 0.0 | 0.00 | 0.61 | 0.00 | 75 | 1016.8 |
| 20260507040057 | 49 | 260 | 0.0 | 0.0 | 0.00 | 0.61 | 0.00 | 75 | 1016.6 |
| 20260507035556 | 49 | 260 | 0.0 | 0.0 | 0.00 | 0.61 | 0.61 | 76 | 1016.4 |
| 20260507035056 | 50 | 260 | 0.0 | 0.0 | 0.00 | 0.61 | 0.61 | 75 | 1016.4 |
| 20260507034600 | 50 | 260 | 0.0 | 0.0 | 0.00 | 0.61 | 0.61 | 75 | 1016.4 |
| 20260507034056 | 50 | 260 | 0.0 | 0.0 | 0.00 | 0.61 | 0.61 | 75 | 1016.4 |
| 20260507033556 | 51 | 260 | 0.0 | 0.0 | 0.00 | 0.61 | 0.61 | 73 | 1016.5 |
| 20260507033055 | 51 | 260 | 0.0 | 0.0 | 0.00 | 0.61 | 0.61 | 72 | 1016.6 |
| 20260507032555 | 51 | 260 | 0.0 | 0.0 | 0.00 | 0.61 | 0.61 | 72 | 1016.5 |
| 20260507032053 | 51 | 260 | 0.0 | 0.0 | 0.00 | 0.61 | 0.61 | 72 | 1016.4 |
| 20260507031554 | 51 | 260 | 0.0 | 0.0 | 0.00 | 0.61 | 0.61 | 72 | 1016.3 |
| 20260507031054 | 51 | 260 | 0.0 | 0.0 | 0.00 | 0.61 | 0.61 | 72 | 1016.2 |
| 20260507030554 | 52 | 260 | 0.0 | 0.0 | 0.00 | 0.61 | 0.61 | 73 | 1016.2 |
| 20260507030054 | 52 | 260 | 0.0 | 0.0 | 0.00 | 0.61 | 0.61 | 73 | 1016.3 |
| 20260507025553 | 52 | 260 | 0.0 | 0.0 | 0.00 | 0.63 | 0.61 | 73 | 1016.4 |
| 20260507025054 | 52 | 260 | 0.0 | 0.0 | 0.00 | 0.63 | 0.61 | 74 | 1016.4 |
| 20260507024558 | 52 | 260 | 0.0 | 0.0 | 0.00 | 0.63 | 0.61 | 75 | 1016.4 |
| 20260507024053 | 52 | 260 | 0.0 | 0.0 | 0.00 | 0.63 | 0.61 | 75 | 1016.4 |
| 20260507023555 | 52 | 260 | 0.0 | 0.0 | 0.00 | 0.63 | 0.61 | 76 | 1016.4 |
| 20260507023054 | 52 | 260 | 0.0 | 0.0 | 0.00 | 0.63 | 0.61 | 75 | 1016.3 |
| 20260507022552 | 52 | 260 | 0.0 | 0.0 | 0.00 | 0.63 | 0.61 | 76 | 1016.3 |
| 20260507022051 | 52 | 260 | 0.0 | 0.0 | 0.00 | 0.63 | 0.61 | 76 | 1016.1 |
| 20260507021554 | 52 | 260 | 0.0 | 0.0 | 0.00 | 0.63 | 0.61 | 76 | 1016.1 |
| 20260507021052 | 52 | 260 | 0.0 | 0.0 | 0.00 | 0.63 | 0.61 | 76 | 1016.1 |
| 20260507020552 | 52 | 260 | 0.0 | 0.0 | 0.00 | 0.63 | 0.61 | 76 | 1016.2 |
| 20260507020054 | 52 | 260 | 0.0 | 0.0 | 0.00 | 0.63 | 0.61 | 75 | 1016.5 |
| 20260507015550 | 52 | 260 | 0.0 | 0.0 | 0.00 | 0.65 | 0.61 | 75 | 1016.1 |
| 20260507015050 | 52 | 260 | 0.0 | 0.0 | 0.00 | 0.65 | 0.61 | 73 | 1016.2 |
| 20260507014551 | 52 | 260 | 0.0 | 0.0 | 0.00 | 0.65 | 0.61 | 74 | 1016.0 |
| 20260507014049 | 52 | 260 | 0.0 | 0.0 | 0.00 | 0.65 | 0.61 | 74 | 1016.0 |
| 20260507013549 | 52 | 260 | 0.0 | 0.0 | 0.00 | 0.65 | 0.61 | 74 | 1016.0 |
| 20260507013048 | 52 | 260 | 0.0 | 0.0 | 0.00 | 0.65 | 0.61 | 75 | 1015.7 |
| 20260507012549 | 52 | 260 | 0.0 | 0.0 | 0.00 | 0.65 | 0.61 | 75 | 1015.6 |
| 20260507012046 | 52 | 260 | 0.0 | 0.0 | 0.00 | 0.65 | 0.61 | 74 | 1015.6 |
| 20260507011548 | 52 | 260 | 0.0 | 0.0 | 0.00 | 0.65 | 0.61 | 74 | 1015.5 |
| 20260507011046 | 53 | 260 | 0.0 | 0.0 | 0.00 | 0.65 | 0.61 | 73 | 1015.6 |
| 20260507010546 | 53 | 260 | 0.0 | 0.0 | 0.00 | 0.65 | 0.61 | 73 | 1015.4 |
| 20260507010104 | 53 | 260 | 0.0 | 0.0 | 0.00 | 0.65 | 0.61 | 74 | 1015.5 |
| 20260507005546 | 53 | 260 | 0.0 | 0.0 | 0.00 | 0.67 | 0.61 | 73 | 1015.4 |
| 20260507005046 | 53 | 260 | 0.0 | 0.0 | 0.00 | 0.67 | 0.61 | 74 | 1015.0 |
| 20260507004545 | 53 | 260 | 0.0 | 0.0 | 0.00 | 0.67 | 0.61 | 75 | 1015.2 |
| 20260507004044 | 53 | 260 | 0.0 | 0.0 | 0.00 | 0.67 | 0.61 | 75 | 1015.0 |
| 20260507003544 | 53 | 260 | 0.0 | 0.0 | 0.00 | 0.67 | 0.61 | 75 | 1015.1 |
| 20260507003044 | 53 | 260 | 0.0 | 0.0 | 0.00 | 0.67 | 0.61 | 76 | 1015.0 |
| 20260507002543 | 53 | 260 | 0.0 | 0.0 | 0.00 | 0.67 | 0.61 | 76 | 1014.9 |
| 20260507002042 | 54 | 260 | 0.0 | 0.0 | 0.00 | 0.67 | 0.61 | 76 | 1014.6 |
| 20260507001549 | 54 | 260 | 0.0 | 0.0 | 0.00 | 0.67 | 0.61 | 75 | 1014.6 |
| 20260507001044 | 54 | 260 | 0.0 | 0.0 | 0.00 | 0.67 | 0.61 | 75 | 1014.6 |
| 20260507000542 | 54 | 260 | 0.0 | 0.0 | 0.00 | 0.67 | 0.61 | 75 | 1014.6 |
| 20260507000041 | 54 | 260 | 0.0 | 0.0 | 0.00 | 0.67 | 0.61 | 76 | 1014.4 |
| 20260506235541 | 54 | 260 | 0.0 | 0.0 | 0.00 | 0.67 | 0.61 | 76 | 1014.5 |
| 20260506235041 | 55 | 260 | 0.0 | 0.0 | 0.00 | 0.67 | 0.61 | 76 | 1014.6 |
| 20260506234541 | 55 | 260 | 0.0 | 0.0 | 0.00 | 0.67 | 0.61 | 76 | 1014.4 |
| 20260506234040 | 55 | 260 | 0.0 | 0.0 | 0.00 | 0.67 | 0.61 | 74 | 1014.1 |
| 20260506233540 | 55 | 260 | 0.0 | 0.0 | 0.00 | 0.67 | 0.61 | 73 | 1013.9 |
| 20260506233043 | 55 | 260 | 0.0 | 0.0 | 0.00 | 0.67 | 0.61 | 73 | 1013.8 |
| 20260506232539 | 56 | 260 | 0.0 | 0.0 | 0.00 | 0.67 | 0.61 | 74 | 1013.6 |
| 20260506232039 | 56 | 260 | 0.0 | 0.0 | 0.00 | 0.67 | 0.61 | 74 | 1013.9 |
| 20260506231539 | 56 | 260 | 0.0 | 0.0 | 0.00 | 0.67 | 0.61 | 74 | 1013.9 |
| 20260506231040 | 56 | 260 | 0.0 | 0.0 | 0.00 | 0.67 | 0.61 | 72 | 1013.9 |
| 20260506230540 | 56 | 260 | 0.0 | 0.0 | 0.00 | 0.67 | 0.61 | 71 | 1013.8 |
| 20260506230044 | 56 | 260 | 0.0 | 0.0 | 0.00 | 0.67 | 0.61 | 71 | 1013.7 |
| 20260506225539 | 56 | 260 | 0.0 | 0.0 | 0.00 | 0.69 | 0.61 | 70 | 1013.8 |
| 20260506225040 | 56 | 260 | 0.0 | 0.0 | 0.00 | 0.69 | 0.61 | 69 | 1013.8 |
| 20260506224539 | 56 | 260 | 0.0 | 0.0 | 0.00 | 0.69 | 0.61 | 70 | 1013.7 |
| 20260506224038 | 56 | 260 | 0.0 | 0.0 | 0.00 | 0.69 | 0.61 | 72 | 1013.6 |
| 20260506223538 | 57 | 260 | 0.0 | 0.0 | 0.00 | 0.69 | 0.61 | 71 | 1014.0 |
| 20260506223043 | 56 | 260 | 0.0 | 0.0 | 0.00 | 0.69 | 0.61 | 68 | 1014.4 |
| 20260506222538 | 57 | 260 | 0.0 | 0.0 | 0.00 | 0.69 | 0.61 | 69 | 1014.1 |
| 20260506222039 | 57 | 260 | 0.0 | 0.0 | 0.00 | 0.69 | 0.61 | 69 | 1014.0 |
| 20260506221544 | 57 | 260 | 0.0 | 0.0 | 0.00 | 0.69 | 0.61 | 70 | 1014.1 |
| 20260506221037 | 57 | 260 | 0.0 | 0.0 | 0.00 | 0.69 | 0.61 | 71 | 1014.3 |
| 20260506220537 | 57 | 260 | 0.0 | 0.0 | 0.00 | 0.69 | 0.61 | 69 | 1014.4 |
| 20260506220045 | 57 | 260 | 0.0 | 1.7 | 0.00 | 0.69 | 0.61 | 68 | 1014.2 |
| 20260506215536 | 57 | 260 | 0.0 | 1.7 | 0.00 | 0.69 | 0.61 | 70 | 1013.9 |
| 20260506215035 | 57 | 260 | 0.0 | 1.7 | 0.00 | 0.69 | 0.61 | 70 | 1014.0 |
| 20260506214535 | 57 | 260 | 0.0 | 1.7 | 0.00 | 0.69 | 0.61 | 69 | 1014.0 |
| 20260506214034 | 57 | 260 | 0.0 | 1.7 | 0.00 | 0.69 | 0.61 | 69 | 1013.9 |
| 20260506213534 | 57 | 260 | 0.0 | 1.7 | 0.00 | 0.69 | 0.61 | 70 | 1013.6 |
| 20260506213035 | 58 | 260 | 0.0 | 0.9 | 0.00 | 0.69 | 0.61 | 70 | 1013.6 |
| 20260506212534 | 58 | 260 | 0.0 | 1.7 | 0.00 | 0.69 | 0.61 | 69 | 1013.8 |
| 20260506212034 | 58 | 260 | 0.9 | 1.7 | 0.00 | 0.69 | 0.61 | 70 | 1013.5 |
| 20260506211539 | 58 | 260 | 0.0 | 1.7 | 0.00 | 0.69 | 0.61 | 68 | 1013.6 |
| 20260506211034 | 58 | 260 | 0.0 | 0.0 | 0.00 | 0.69 | 0.61 | 72 | 1013.3 |
| 20260506210534 | 58 | 260 | 0.0 | 0.9 | 0.00 | 0.69 | 0.61 | 73 | 1013.3 |
| 20260506210035 | 58 | 260 | 0.0 | 1.7 | 0.00 | 0.69 | 0.61 | 69 | 1013.3 |
| 20260506205533 | 58 | 260 | 0.9 | 1.7 | 0.00 | 0.69 | 0.61 | 68 | 1013.3 |
| 20260506205034 | 58 | 260 | 0.9 | 1.7 | 0.00 | 0.69 | 0.61 | 66 | 1013.6 |
| 20260506204533 | 58 | 328 | 0.0 | 1.7 | 0.00 | 0.69 | 0.61 | 67 | 1013.4 |
| 20260506204033 | 58 | 329 | 0.9 | 2.6 | 0.00 | 0.69 | 0.61 | 65 | 1013.4 |
| 20260506203535 | 58 | 328 | 0.9 | 2.6 | 0.00 | 0.69 | 0.61 | 66 | 1013.5 |
| 20260506203033 | 59 | 328 | 0.0 | 1.7 | 0.00 | 0.69 | 0.61 | 71 | 1013.7 |
| 20260506202533 | 59 | 328 | 0.9 | 1.7 | 0.00 | 0.69 | 0.61 | 68 | 1013.5 |
| 20260506202032 | 59 | 328 | 0.0 | 3.5 | 0.00 | 0.69 | 0.61 | 67 | 1013.4 |
| 20260506201532 | 59 | 328 | 0.9 | 4.3 | 0.00 | 0.69 | 0.61 | 64 | 1013.5 |
| 20260506201031 | 59 | 359 | 1.7 | 4.3 | 0.00 | 0.69 | 0.61 | 69 | 1013.6 |
| 20260506200531 | 59 | 204 | 0.9 | 2.6 | 0.00 | 0.69 | 0.61 | 66 | 1013.7 |
| 20260506200032 | 59 | 204 | 0.9 | 2.6 | 0.00 | 0.69 | 0.61 | 64 | 1013.7 |
| 20260506195531 | 59 | 195 | 0.9 | 3.5 | 0.00 | 0.69 | 0.61 | 64 | 1013.7 |
| 20260506195032 | 60 | 178 | 0.9 | 3.5 | 0.00 | 0.69 | 0.61 | 65 | 1013.8 |
| 20260506194535 | 60 | 176 | 0.9 | 2.6 | 0.00 | 0.69 | 0.61 | 69 | 1013.6 |
| 20260506194030 | 59 | 335 | 0.9 | 2.6 | 0.00 | 0.69 | 0.61 | 67 | 1013.7 |
| 20260506193529 | 59 | 11 | 0.9 | 1.7 | 0.00 | 0.69 | 0.61 | 67 | 1013.4 |
| 20260506193032 | 59 | 12 | 0.0 | 2.6 | 0.00 | 0.69 | 0.61 | 70 | 1013.6 |
| 20260506192529 | 59 | 11 | 0.9 | 2.6 | 0.00 | 0.69 | 0.61 | 71 | 1013.3 |
| 20260506192029 | 59 | 11 | 0.9 | 3.5 | 0.00 | 0.69 | 0.61 | 67 | 1013.3 |
| 20260506191529 | 59 | 359 | 0.9 | 2.6 | 0.00 | 0.69 | 0.61 | 69 | 1013.4 |
| 20260506191028 | 60 | 280 | 1.7 | 3.5 | 0.00 | 0.69 | 0.61 | 71 | 1013.3 |
| 20260506190528 | 59 | 273 | 0.9 | 3.5 | 0.00 | 0.69 | 0.61 | 71 | 1013.3 |
| 20260506190025 | 59 | 287 | 1.7 | 2.6 | 0.00 | 0.69 | 0.61 | 70 | 1013.0 |
| 20260506185525 | 59 | 304 | 1.7 | 2.6 | 0.00 | 0.69 | 0.61 | 72 | 1012.9 |
| 20260506185023 | 58 | 251 | 0.9 | 2.6 | 0.00 | 0.69 | 0.61 | 73 | 1013.0 |
| 20260506184525 | 58 | 251 | 0.0 | 2.6 | 0.00 | 0.69 | 0.61 | 74 | 1013.2 |
| 20260506184021 | 57 | 244 | 0.9 | 4.3 | 0.00 | 0.69 | 0.61 | 74 | 1013.2 |
| 20260506183520 | 57 | 337 | 0.9 | 4.3 | 0.00 | 0.69 | 0.61 | 74 | 1013.3 |
| 20260506183019 | 57 | 313 | 0.9 | 3.5 | 0.00 | 0.69 | 0.61 | 74 | 1013.4 |
| 20260506182517 | 56 | 336 | 0.9 | 3.5 | 0.00 | 0.69 | 0.61 | 76 | 1013.4 |
| 20260506182017 | 56 | 335 | 0.9 | 5.2 | 0.00 | 0.69 | 0.61 | 76 | 1013.4 |
| 20260506181516 | 56 | 359 | 1.7 | 5.2 | 0.00 | 0.69 | 0.61 | 76 | 1013.4 |
| 20260506181016 | 56 | 313 | 0.9 | 2.6 | 0.00 | 0.69 | 0.61 | 76 | 1013.4 |
| 20260506180516 | 55 | 313 | 0.9 | 1.7 | 0.00 | 0.69 | 0.61 | 76 | 1013.4 |
| 20260506180016 | 55 | 313 | 0.0 | 2.6 | 0.00 | 0.69 | 0.61 | 76 | 1013.4 |
| 20260506175515 | 55 | 313 | 0.9 | 4.3 | 0.00 | 0.69 | 0.61 | 76 | 1013.5 |
| 20260506175015 | 55 | 7 | 2.6 | 4.3 | 0.00 | 0.69 | 0.61 | 75 | 1013.5 |
| 20260506174514 | 55 | 341 | 0.0 | 3.5 | 0.00 | 0.69 | 0.61 | 75 | 1013.4 |
| 20260506174014 | 54 | 13 | 1.7 | 3.5 | 0.00 | 0.69 | 0.61 | 75 | 1013.6 |
| 20260506173514 | 54 | 354 | 0.9 | 2.6 | 0.00 | 0.69 | 0.61 | 74 | 1013.7 |
| 20260506173014 | 55 | 354 | 0.0 | 2.6 | 0.00 | 0.69 | 0.61 | 73 | 1013.9 |
| 20260506172511 | 54 | 354 | 0.0 | 2.6 | 0.00 | 0.69 | 0.61 | 70 | 1014.0 |
| 20260506172013 | 54 | 354 | 0.9 | 3.5 | 0.00 | 0.69 | 0.61 | 71 | 1014.1 |
| 20260506171511 | 53 | 354 | 1.7 | 3.5 | 0.00 | 0.69 | 0.61 | 67 | 1013.9 |
| 20260506171012 | 53 | 4 | 0.9 | 2.6 | 0.00 | 0.69 | 0.61 | 69 | 1013.8 |
| 20260506170510 | 53 | 242 | 0.9 | 2.6 | 0.00 | 0.69 | 0.61 | 66 | 1013.7 |
| 20260506170011 | 53 | 242 | 0.0 | 0.9 | 0.00 | 0.69 | 0.61 | 59 | 1013.7 |
| 20260506165510 | 52 | 242 | 0.0 | 2.6 | 0.00 | 0.69 | 0.61 | 65 | 1013.8 |
| 20260506165010 | 52 | 242 | 0.9 | 2.6 | 0.00 | 0.69 | 0.61 | 66 | 1014.0 |
| 20260506164508 | 52 | 209 | 0.9 | 2.6 | 0.00 | 0.69 | 0.61 | 64 | 1013.9 |
| 20260506164007 | 52 | 227 | 0.9 | 2.6 | 0.00 | 0.69 | 0.61 | 61 | 1014.0 |
| 20260506163506 | 52 | 227 | 0.9 | 2.6 | 0.00 | 0.69 | 0.61 | 56 | 1013.9 |
| 20260506163008 | 52 | 226 | 0.0 | 2.6 | 0.00 | 0.69 | 0.61 | 53 | 1014.0 |
| 20260506162505 | 52 | 226 | 0.9 | 2.6 | 0.00 | 0.69 | 0.61 | 52 | 1014.0 |
| 20260506162004 | 52 | 253 | 0.0 | 1.7 | 0.00 | 0.69 | 0.61 | 53 | 1013.9 |
| 20260506161506 | 52 | 336 | 0.9 | 1.7 | 0.00 | 0.69 | 0.61 | 51 | 1013.8 |
| 20260506161002 | 51 | 336 | 0.0 | 2.6 | 0.00 | 0.69 | 0.61 | 51 | 1013.9 |
| 20260506160502 | 51 | 336 | 0.9 | 2.6 | 0.00 | 0.69 | 0.61 | 50 | 1013.7 |
| 20260506160002 | 51 | 336 | 0.9 | 2.6 | 0.00 | 0.69 | 0.61 | 48 | 1013.8 |
| 20260506155501 | 51 | 336 | 0.0 | 2.6 | 0.00 | 0.69 | 0.61 | 47 | 1013.6 |
| 20260506155001 | 51 | 336 | 0.9 | 2.6 | 0.00 | 0.69 | 0.61 | 45 | 1013.4 |
| 20260506154603 | 51 | 336 | 0.9 | 2.6 | 0.00 | 0.69 | 0.61 | 45 | 1013.3 |
| 20260506154100 | 51 | 336 | 0.9 | 1.7 | 0.00 | 0.69 | 0.61 | 44 | 1013.5 |
| 20260506153559 | 51 | 336 | 0.0 | 1.7 | 0.00 | 0.69 | 0.61 | 44 | 1013.5 |
| 20260506153059 | 50 | 336 | 0.0 | 2.6 | 0.00 | 0.69 | 0.61 | 45 | 1013.6 |
| 20260506152558 | 50 | 336 | 0.0 | 2.6 | 0.00 | 0.69 | 0.61 | 45 | 1013.4 |
| 20260506152058 | 50 | 336 | 0.9 | 2.6 | 0.00 | 0.69 | 0.61 | 45 | 1013.5 |
| 20260506151558 | 49 | 336 | 0.0 | 0.0 | 0.00 | 0.69 | 0.61 | 45 | 1013.5 |
| 20260506151057 | 49 | 336 | 0.0 | 0.0 | 0.00 | 0.69 | 0.61 | 45 | 1013.5 |
| 20260506150557 | 49 | 336 | 0.0 | 0.0 | 0.00 | 0.69 | 0.61 | 45 | 1013.3 |
| 20260506145555 | 48 | 336 | 0.0 | 0.0 | 0.00 | 0.69 | 0.61 | 46 | 1013.2 |
| 20260506145056 | 48 | 336 | 0.0 | 1.7 | 0.00 | 0.69 | 0.61 | 46 | 1013.2 |
| 20260506144609 | 48 | 336 | 0.0 | 0.9 | 0.00 | 0.69 | 0.61 | 47 | 1012.9 |
| 20260506144054 | 48 | 336 | 0.0 | 0.9 | 0.00 | 0.69 | 0.61 | 46 | 1012.7 |
| 20260506143554 | 48 | 336 | 0.0 | 0.9 | 0.00 | 0.69 | 0.61 | 47 | 1012.7 |
| 20260506143055 | 48 | 336 | 0.0 | 0.0 | 0.00 | 0.69 | 0.61 | 47 | 1012.8 |
| 20260506142555 | 48 | 336 | 0.0 | 0.9 | 0.00 | 0.69 | 0.61 | 47 | 1012.8 |
| 20260506142054 | 47 | 336 | 0.0 | 1.7 | 0.00 | 0.69 | 0.61 | 47 | 1012.8 |
| 20260506141552 | 47 | 336 | 0.0 | 1.7 | 0.00 | 0.69 | 0.61 | 47 | 1012.7 |
| 20260506141053 | 47 | 336 | 0.0 | 2.6 | 0.00 | 0.69 | 0.61 | 47 | 1012.7 |
| 20260506140551 | 47 | 336 | 0.0 | 2.6 | 0.00 | 0.69 | 0.61 | 47 | 1012.7 |
| 20260506140105 | 47 | 336 | 0.0 | 1.7 | 0.00 | 0.69 | 0.61 | 47 | 1012.4 |
| 20260506135551 | 47 | 336 | 0.0 | 1.7 | 0.00 | 0.69 | 0.61 | 47 | 1012.5 |
| 20260506135051 | 47 | 336 | 0.0 | 2.6 | 0.00 | 0.69 | 0.61 | 47 | 1012.5 |
| 20260506134550 | 47 | 336 | 0.0 | 2.6 | 0.00 | 0.69 | 0.61 | 47 | 1012.6 |
| 20260506134050 | 47 | 336 | 0.0 | 0.9 | 0.00 | 0.69 | 0.61 | 47 | 1012.6 |
| 20260506133550 | 47 | 336 | 0.0 | 2.6 | 0.00 | 0.69 | 0.61 | 48 | 1012.6 |
| 20260506133104 | 47 | 336 | 0.9 | 2.6 | 0.00 | 0.69 | 0.61 | 47 | 1012.5 |
| 20260506132550 | 47 | 330 | 0.0 | 2.6 | 0.00 | 0.69 | 0.61 | 48 | 1012.4 |
| 20260506132048 | 47 | 312 | 0.9 | 2.6 | 0.00 | 0.69 | 0.61 | 48 | 1012.3 |
| 20260506131548 | 47 | 312 | 0.0 | 2.6 | 0.00 | 0.69 | 0.61 | 48 | 1012.3 |
| 20260506131049 | 47 | 312 | 0.0 | 2.6 | 0.00 | 0.69 | 0.61 | 48 | 1012.3 |
| 20260506130546 | 47 | 308 | 0.9 | 2.6 | 0.00 | 0.69 | 0.61 | 48 | 1012.0 |
| 20260506130117 | 47 | 295 | 0.9 | 2.6 | 0.00 | 0.69 | 0.61 | 48 | 1011.8 |
| 20260506125545 | 47 | 296 | 0.0 | 2.6 | 0.00 | 0.69 | 0.61 | 48 | 1011.9 |
| 20260506125044 | 47 | 296 | 0.9 | 2.6 | 0.00 | 0.69 | 0.61 | 48 | 1011.6 |